| time (UTC) | temp F | wind direction | speed MPH | gust MPH | rain 1hr in | rain 24hr in | rain mn in | humidity % | barometer mb |
| 20260508192507 | 54 | 61 | 5.0 | 9.0 | 0.00 | 0.56 | 0.00 | 60 | 1001.5 |
| 20260508192004 | 53 | 347 | 4.0 | 13.0 | 0.00 | 0.56 | 0.00 | 60 | 1001.4 |
| 20260508191508 | 53 | 348 | 5.0 | 13.0 | 0.00 | 0.56 | 0.00 | 61 | 1001.4 |
| 20260508191005 | 53 | 9 | 6.0 | 13.0 | 0.00 | 0.56 | 0.00 | 58 | 1001.4 |
| 20260508190510 | 54 | 15 | 6.0 | 12.0 | 0.00 | 0.56 | 0.00 | 57 | 1001.4 |
| 20260508190005 | 54 | 38 | 6.0 | 12.0 | 0.00 | 0.56 | 0.00 | 56 | 1001.3 |
| 20260508185613 | 54 | 311 | 4.0 | 11.0 | 0.00 | 0.67 | 0.00 | 58 | 1001.3 |
| 20260508185005 | 54 | 341 | 6.0 | 10.0 | 0.00 | 0.67 | 0.00 | 59 | 1001.3 |
| 20260508184509 | 54 | 21 | 5.0 | 11.0 | 0.00 | 0.67 | 0.00 | 58 | 1001.3 |
| 20260508184106 | 54 | 310 | 5.0 | 11.0 | 0.00 | 0.67 | 0.00 | 58 | 1001.1 |
| 20260508183504 | 54 | 24 | 4.0 | 11.0 | 0.00 | 0.67 | 0.00 | 57 | 1001.0 |
| 20260508183007 | 54 | 69 | 6.0 | 13.0 | 0.00 | 0.67 | 0.00 | 56 | 1001.1 |
| 20260508182503 | 54 | 26 | 5.0 | 13.0 | 0.00 | 0.67 | 0.00 | 56 | 1001.3 |
| 20260508182009 | 54 | 26 | 4.0 | 10.0 | 0.00 | 0.67 | 0.00 | 59 | 1001.4 |
| 20260508181504 | 54 | 34 | 4.0 | 11.0 | 0.00 | 0.67 | 0.00 | 58 | 1001.5 |
| 20260508181011 | 54 | 332 | 4.0 | 11.0 | 0.00 | 0.67 | 0.00 | 59 | 1001.4 |
| 20260508180506 | 54 | 26 | 6.0 | 10.0 | 0.00 | 0.67 | 0.00 | 58 | 1001.5 |
| 20260508180107 | 54 | 10 | 5.0 | 9.0 | 0.00 | 0.67 | 0.00 | 59 | 1001.5 |
| 20260508175508 | 54 | 358 | 4.0 | 12.0 | 0.00 | 0.67 | 0.00 | 59 | 1001.5 |
| 20260508175004 | 54 | 67 | 3.0 | 10.0 | 0.00 | 0.67 | 0.00 | 58 | 1001.5 |
| 20260508174507 | 54 | 40 | 4.0 | 10.0 | 0.00 | 0.67 | 0.00 | 59 | 1001.5 |
| 20260508174004 | 54 | 26 | 3.0 | 9.0 | 0.00 | 0.67 | 0.00 | 60 | 1001.6 |
| 20260508173506 | 54 | 26 | 4.0 | 9.0 | 0.00 | 0.67 | 0.00 | 61 | 1001.6 |
| 20260508173010 | 53 | 355 | 3.0 | 8.0 | 0.00 | 0.67 | 0.00 | 62 | 1001.6 |
| 20260508172508 | 53 | 345 | 3.0 | 8.0 | 0.00 | 0.67 | 0.00 | 63 | 1001.7 |
| 20260508172103 | 53 | 309 | 2.0 | 8.0 | 0.00 | 0.67 | 0.00 | 64 | 1001.7 |
| 20260508171506 | 52 | 318 | 2.0 | 8.0 | 0.00 | 0.67 | 0.00 | 64 | 1001.9 |
| 20260508171010 | 52 | 17 | 3.0 | 8.0 | 0.00 | 0.67 | 0.00 | 67 | 1002.0 |
| 20260508170507 | 51 | 16 | 3.0 | 8.0 | 0.00 | 0.67 | 0.00 | 67 | 1002.0 |
| 20260508170010 | 51 | 348 | 3.0 | 8.0 | 0.00 | 0.67 | 0.00 | 67 | 1002.0 |
| 20260508165505 | 51 | 26 | 4.0 | 9.0 | 0.00 | 0.67 | 0.00 | 67 | 1002.1 |
| 20260508165009 | 51 | 76 | 4.0 | 9.0 | 0.00 | 0.67 | 0.00 | 67 | 1002.0 |
| 20260508164507 | 51 | 65 | 3.0 | 7.0 | 0.00 | 0.67 | 0.00 | 67 | 1001.9 |
| 20260508164010 | 51 | 322 | 2.0 | 7.0 | 0.00 | 0.67 | 0.00 | 67 | 1001.9 |
| 20260508163505 | 51 | 17 | 3.0 | 8.0 | 0.00 | 0.67 | 0.00 | 66 | 1001.9 |
| 20260508163014 | 51 | 19 | 3.0 | 9.0 | 0.00 | 0.67 | 0.00 | 67 | 1001.7 |
| 20260508162502 | 51 | 360 | 4.0 | 9.0 | 0.00 | 0.67 | 0.00 | 67 | 1001.7 |
| 20260508162011 | 51 | 67 | 2.0 | 7.0 | 0.00 | 0.67 | 0.00 | 67 | 1002.0 |
| 20260508161504 | 51 | 338 | 3.0 | 7.0 | 0.00 | 0.67 | 0.00 | 67 | 1001.9 |
| 20260508161010 | 51 | 348 | 2.0 | 7.0 | 0.00 | 0.67 | 0.00 | 68 | 1001.7 |
| 20260508160504 | 51 | 342 | 3.0 | 6.0 | 0.00 | 0.67 | 0.00 | 69 | 1001.8 |
| 20260508160009 | 50 | 308 | 3.0 | 6.0 | 0.00 | 0.67 | 0.00 | 69 | 1001.9 |
| 20260508155505 | 50 | 320 | 3.0 | 9.0 | 0.00 | 0.67 | 0.00 | 69 | 1002.0 |
| 20260508155007 | 50 | 14 | 3.0 | 9.0 | 0.00 | 0.67 | 0.00 | 69 | 1002.0 |
| 20260508154510 | 50 | 29 | 4.0 | 10.0 | 0.00 | 0.67 | 0.00 | 70 | 1001.8 |
| 20260508154005 | 50 | 8 | 4.0 | 10.0 | 0.00 | 0.67 | 0.00 | 70 | 1001.8 |
| 20260508153507 | 50 | 40 | 4.0 | 10.0 | 0.00 | 0.67 | 0.00 | 70 | 1001.9 |
| 20260508153009 | 50 | 353 | 4.0 | 9.0 | 0.00 | 0.67 | 0.00 | 71 | 1002.0 |
| 20260508152508 | 51 | 320 | 2.0 | 6.0 | 0.00 | 0.67 | 0.00 | 71 | 1002.0 |
| 20260508152105 | 51 | 353 | 3.0 | 9.0 | 0.00 | 0.67 | 0.00 | 71 | 1001.8 |
| 20260508151509 | 50 | 18 | 4.0 | 9.0 | 0.00 | 0.67 | 0.00 | 71 | 1001.8 |
| 20260508151005 | 51 | 324 | 2.0 | 8.0 | 0.00 | 0.67 | 0.00 | 72 | 1002.0 |
| 20260508150508 | 50 | 7 | 3.0 | 8.0 | 0.00 | 0.67 | 0.00 | 73 | 1001.9 |
| 20260508150004 | 50 | 1 | 5.0 | 8.0 | 0.00 | 0.67 | 0.00 | 72 | 1001.9 |
| 20260508145512 | 51 | 327 | 4.0 | 7.0 | 0.00 | 0.67 | 0.00 | 73 | 1002.0 |
| 20260508145106 | 50 | 24 | 4.0 | 8.0 | 0.00 | 0.67 | 0.00 | 74 | 1002.2 |
| 20260508144510 | 50 | 319 | 4.0 | 10.0 | 0.00 | 0.67 | 0.00 | 74 | 1002.0 |
| 20260508144005 | 50 | 55 | 4.0 | 10.0 | 0.00 | 0.67 | 0.00 | 74 | 1002.1 |
| 20260508143509 | 50 | 332 | 4.0 | 8.0 | 0.00 | 0.67 | 0.00 | 73 | 1002.2 |
| 20260508143118 | 50 | 309 | 4.0 | 8.0 | 0.00 | 0.67 | 0.00 | 74 | 1002.1 |
| 20260508142506 | 51 | 312 | 3.0 | 9.0 | 0.00 | 0.67 | 0.00 | 74 | 1002.1 |
| 20260508142002 | 51 | 309 | 5.0 | 9.0 | 0.00 | 0.67 | 0.00 | 75 | 1002.0 |
| 20260508141510 | 50 | 74 | 5.0 | 9.0 | 0.00 | 0.67 | 0.00 | 75 | 1002.2 |
| 20260508141005 | 50 | 357 | 5.0 | 11.0 | 0.00 | 0.67 | 0.00 | 74 | 1002.4 |
| 20260508140512 | 50 | 346 | 4.0 | 11.0 | 0.00 | 0.67 | 0.00 | 75 | 1002.4 |
| 20260508140007 | 50 | 11 | 5.0 | 11.0 | 0.00 | 0.67 | 0.00 | 75 | 1002.4 |
| 20260508135508 | 51 | 355 | 4.0 | 7.0 | 0.00 | 0.67 | 0.00 | 74 | 1002.3 |
| 20260508135004 | 51 | 354 | 3.0 | 7.0 | 0.00 | 0.67 | 0.00 | 74 | 1002.4 |
| 20260508134511 | 51 | 332 | 2.0 | 8.0 | 0.00 | 0.67 | 0.00 | 77 | 1002.6 |
| 20260508134002 | 50 | 1 | 5.0 | 8.0 | 0.00 | 0.67 | 0.00 | 77 | 1002.7 |
| 20260508133510 | 50 | 16 | 3.0 | 8.0 | 0.00 | 0.67 | 0.00 | 77 | 1003.0 |
| 20260508133004 | 50 | 5 | 4.0 | 8.0 | 0.00 | 0.67 | 0.00 | 76 | 1002.9 |
| 20260508132507 | 50 | 329 | 4.0 | 8.0 | 0.00 | 0.67 | 0.00 | 78 | 1002.8 |
| 20260508132005 | 50 | 323 | 5.0 | 8.0 | 0.00 | 0.67 | 0.00 | 77 | 1002.7 |
| 20260508131508 | 50 | 314 | 4.0 | 10.0 | 0.00 | 0.67 | 0.00 | 78 | 1002.6 |
| 20260508131104 | 50 | 349 | 3.0 | 10.0 | 0.00 | 0.67 | 0.00 | 78 | 1002.4 |
| 20260508130506 | 49 | 341 | 3.0 | 10.0 | 0.00 | 0.67 | 0.00 | 80 | 1002.4 |
| 20260508130105 | 49 | 24 | 4.0 | 10.0 | 0.00 | 0.67 | 0.00 | 79 | 1002.3 |
| 20260508125506 | 49 | 344 | 6.0 | 11.0 | 0.00 | 0.67 | 0.00 | 80 | 1002.4 |
| 20260508125010 | 49 | 13 | 6.0 | 11.0 | 0.00 | 0.67 | 0.00 | 80 | 1002.2 |
| 20260508124605 | 49 | 3 | 3.0 | 9.0 | 0.00 | 0.67 | 0.00 | 81 | 1002.3 |
| 20260508124010 | 49 | 327 | 3.0 | 8.0 | 0.00 | 0.67 | 0.00 | 81 | 1002.0 |
| 20260508123505 | 49 | 358 | 4.0 | 8.0 | 0.00 | 0.67 | 0.00 | 84 | 1002.1 |
| 20260508123014 | 48 | 359 | 5.0 | 8.0 | 0.00 | 0.67 | 0.00 | 85 | 1002.3 |
| 20260508122511 | 47 | 353 | 4.0 | 8.0 | 0.00 | 0.67 | 0.00 | 87 | 1002.5 |
| 20260508122007 | 47 | 351 | 4.0 | 8.0 | 0.00 | 0.67 | 0.00 | 90 | 1002.5 |
| 20260508121511 | 46 | 358 | 3.0 | 7.0 | 0.00 | 0.67 | 0.00 | 93 | 1002.4 |
| 20260508121007 | 44 | 329 | 3.0 | 8.0 | 0.00 | 0.67 | 0.00 | 92 | 1002.4 |
| 20260508120604 | 44 | 332 | 4.0 | 8.0 | 0.00 | 0.67 | 0.00 | 94 | 1002.3 |
| 20260508120006 | 43 | 324 | 4.0 | 7.0 | 0.00 | 0.67 | 0.00 | 93 | 1002.5 |
| 20260508115603 | 43 | 337 | 3.0 | 6.0 | 0.00 | 0.67 | 0.00 | 93 | 1002.7 |
| 20260508115007 | 42 | 305 | 2.0 | 5.0 | 0.00 | 0.67 | 0.00 | 94 | 1002.7 |
| 20260508114504 | 42 | 298 | 2.0 | 5.0 | 0.00 | 0.67 | 0.00 | 94 | 1002.7 |
| 20260508114007 | 42 | 296 | 1.0 | 4.0 | 0.00 | 0.67 | 0.00 | 94 | 1002.8 |
| 20260508113604 | 42 | 290 | 2.0 | 4.0 | 0.00 | 0.67 | 0.00 | 95 | 1002.8 |
| 20260508113007 | 42 | 304 | 2.0 | 5.0 | 0.00 | 0.67 | 0.00 | 95 | 1002.6 |
| 20260508112604 | 41 | 292 | 1.0 | 5.0 | 0.00 | 0.67 | 0.00 | 95 | 1002.4 |
| 20260508112007 | 41 | 326 | 1.0 | 4.0 | 0.00 | 0.67 | 0.00 | 95 | 1002.6 |
| 20260508111512 | 40 | 295 | 1.0 | 4.0 | 0.00 | 0.67 | 0.00 | 95 | 1002.6 |
| 20260508111010 | 40 | 310 | 1.0 | 4.0 | 0.00 | 0.67 | 0.00 | 95 | 1002.6 |
| 20260508110506 | 40 | 303 | 1.0 | 3.0 | 0.00 | 0.67 | 0.00 | 95 | 1002.6 |
| 20260508110025 | 40 | 301 | 1.0 | 3.0 | 0.00 | 0.67 | 0.00 | 95 | 1002.6 |
| 20260508105506 | 40 | 320 | 1.0 | 3.0 | 0.00 | 0.67 | 0.00 | 95 | 1002.6 |
| 20260508105012 | 40 | 303 | 1.0 | 3.0 | 0.00 | 0.67 | 0.00 | 96 | 1002.8 |
| 20260508104510 | 40 | 313 | 1.0 | 3.0 | 0.00 | 0.67 | 0.00 | 95 | 1003.0 |
| 20260508104011 | 40 | 324 | 1.0 | 4.0 | 0.00 | 0.67 | 0.00 | 95 | 1003.0 |
| 20260508103507 | 39 | 304 | 2.0 | 5.0 | 0.00 | 0.67 | 0.00 | 95 | 1003.0 |
| 20260508102509 | 39 | 313 | 2.0 | 4.0 | 0.00 | 0.67 | 0.00 | 95 | 1002.9 |
| 20260508102011 | 39 | 313 | 1.0 | 3.0 | 0.00 | 0.67 | 0.00 | 95 | 1002.8 |
| 20260508101505 | 39 | 302 | 1.0 | 3.0 | 0.00 | 0.67 | 0.00 | 96 | 1002.8 |
| 20260508101010 | 39 | 311 | 1.0 | 3.0 | 0.00 | 0.67 | 0.00 | 96 | 1002.8 |
| 20260508100505 | 39 | 317 | 1.0 | 3.0 | 0.00 | 0.67 | 0.00 | 96 | 1002.9 |
| 20260508100010 | 39 | 325 | 1.0 | 3.0 | 0.00 | 0.67 | 0.00 | 95 | 1002.8 |
| 20260508095506 | 39 | 298 | 0.0 | 2.0 | 0.00 | 0.68 | 0.00 | 95 | 1002.6 |
| 20260508095011 | 39 | 297 | 1.0 | 2.0 | 0.00 | 0.68 | 0.00 | 95 | 1002.5 |
| 20260508094606 | 39 | 320 | 1.0 | 2.0 | 0.00 | 0.68 | 0.00 | 95 | 1002.3 |
| 20260508094010 | 39 | 318 | 1.0 | 2.0 | 0.00 | 0.68 | 0.00 | 95 | 1002.5 |
| 20260508093508 | 39 | 305 | 0.0 | 2.0 | 0.00 | 0.68 | 0.00 | 95 | 1002.5 |
| 20260508093012 | 39 | 322 | 0.0 | 4.0 | 0.00 | 0.68 | 0.00 | 95 | 1002.5 |
| 20260508092505 | 39 | 301 | 0.0 | 4.0 | 0.00 | 0.68 | 0.00 | 95 | 1002.6 |
| 20260508092010 | 39 | 323 | 2.0 | 4.0 | 0.00 | 0.68 | 0.00 | 95 | 1002.5 |
| 20260508091505 | 39 | 323 | 2.0 | 4.0 | 0.00 | 0.68 | 0.00 | 95 | 1002.5 |
| 20260508091010 | 40 | 309 | 1.0 | 3.0 | 0.00 | 0.68 | 0.00 | 95 | 1002.5 |
| 20260508090505 | 40 | 322 | 1.0 | 3.0 | 0.00 | 0.68 | 0.00 | 95 | 1002.4 |
| 20260508090010 | 40 | 329 | 0.0 | 2.0 | 0.00 | 0.68 | 0.00 | 95 | 1002.4 |
| 20260508085506 | 40 | 252 | 0.0 | 2.0 | 0.00 | 0.72 | 0.00 | 95 | 1002.4 |
| 20260508085010 | 40 | 299 | 0.0 | 2.0 | 0.00 | 0.72 | 0.00 | 95 | 1002.4 |
| 20260508084505 | 40 | 296 | 0.0 | 2.0 | 0.00 | 0.72 | 0.00 | 95 | 1002.5 |
| 20260508084009 | 41 | 280 | 0.0 | 1.0 | 0.00 | 0.72 | 0.00 | 95 | 1002.5 |
| 20260508083504 | 40 | 292 | 0.0 | 1.0 | 0.00 | 0.72 | 0.00 | 95 | 1002.3 |
| 20260508083009 | 41 | 306 | 0.0 | 1.0 | 0.00 | 0.72 | 0.00 | 95 | 1002.2 |
| 20260508082505 | 41 | 299 | 0.0 | 3.0 | 0.00 | 0.72 | 0.00 | 95 | 1002.1 |
| 20260508082008 | 41 | 305 | 1.0 | 3.0 | 0.00 | 0.72 | 0.00 | 94 | 1002.0 |
| 20260508081504 | 41 | 318 | 2.0 | 0.0 | 0.00 | 0.00 | 0.00 | 94 | 1001.9 |
| 20260508081010 | 42 | 320 | 1.0 | 5.0 | 0.00 | 0.72 | 0.00 | 94 | 1002.2 |
| 20260508080605 | 42 | 332 | 2.0 | 5.0 | 0.00 | 0.72 | 0.00 | 95 | 1002.1 |
| 20260508080012 | 42 | 360 | 2.0 | 5.0 | 0.00 | 0.72 | 0.00 | 95 | 1001.9 |
| 20260508075505 | 42 | 349 | 1.0 | 3.0 | 0.00 | 0.73 | 0.00 | 95 | 1002.0 |
| 20260508075011 | 42 | 22 | 1.0 | 6.0 | 0.00 | 0.73 | 0.00 | 95 | 1001.9 |
| 20260508074506 | 42 | 348 | 3.0 | 6.0 | 0.00 | 0.73 | 0.00 | 95 | 1001.9 |
| 20260508074011 | 42 | 17 | 2.0 | 5.0 | 0.00 | 0.73 | 0.00 | 95 | 1002.0 |
| 20260508073507 | 43 | 5 | 2.0 | 5.0 | 0.00 | 0.73 | 0.00 | 95 | 1002.1 |
| 20260508073011 | 43 | 14 | 1.0 | 6.0 | 0.00 | 0.73 | 0.00 | 95 | 1002.0 |
| 20260508072604 | 43 | 17 | 3.0 | 6.0 | 0.00 | 0.73 | 0.00 | 95 | 1002.1 |
| 20260508072012 | 43 | 37 | 2.0 | 5.0 | 0.00 | 0.73 | 0.00 | 95 | 1002.0 |
| 20260508071505 | 43 | 342 | 2.0 | 4.0 | 0.00 | 0.73 | 0.00 | 95 | 1002.2 |
| 20260508071010 | 43 | 318 | 1.0 | 3.0 | 0.00 | 0.73 | 0.00 | 95 | 1002.1 |
| 20260508070509 | 43 | 355 | 1.0 | 5.0 | 0.00 | 0.73 | 0.00 | 95 | 1002.1 |
| 20260508070008 | 43 | 5 | 2.0 | 5.0 | 0.00 | 0.73 | 0.00 | 95 | 1002.0 |
| 20260508065603 | 43 | 328 | 1.0 | 5.0 | 0.00 | 0.73 | 0.00 | 95 | 1002.0 |
| 20260508065011 | 44 | 22 | 2.0 | 7.0 | 0.00 | 0.73 | 0.00 | 94 | 1002.0 |
| 20260508064603 | 44 | 334 | 3.0 | 7.0 | 0.00 | 0.73 | 0.00 | 94 | 1002.0 |
| 20260508064009 | 44 | 29 | 2.0 | 9.0 | 0.00 | 0.73 | 0.00 | 94 | 1002.0 |
| 20260508063510 | 45 | 26 | 4.0 | 9.0 | 0.00 | 0.73 | 0.00 | 94 | 1001.9 |
| 20260508063006 | 45 | 12 | 2.0 | 9.0 | 0.00 | 0.73 | 0.00 | 94 | 1002.1 |
| 20260508062510 | 46 | 335 | 3.0 | 7.0 | 0.00 | 0.73 | 0.00 | 94 | 1002.1 |
| 20260508062005 | 46 | 320 | 2.0 | 8.0 | 0.00 | 0.73 | 0.00 | 95 | 1001.8 |
| 20260508061510 | 46 | 40 | 4.0 | 8.0 | 0.00 | 0.73 | 0.00 | 95 | 1001.9 |
| 20260508061106 | 47 | 306 | 4.0 | 8.0 | 0.00 | 0.73 | 0.00 | 95 | 1001.9 |
| 20260508060510 | 47 | 52 | 4.0 | 8.0 | 0.00 | 0.73 | 0.00 | 95 | 1001.7 |
| 20260508060005 | 47 | 343 | 3.0 | 8.0 | 0.00 | 0.73 | 0.00 | 95 | 1001.6 |
| 20260508055508 | 47 | 337 | 4.0 | 8.0 | 0.00 | 0.73 | 0.00 | 95 | 1001.7 |
| 20260508055106 | 48 | 341 | 1.0 | 4.0 | 0.00 | 0.73 | 0.00 | 95 | 1001.5 |
| 20260508054518 | 47 | 2 | 1.0 | 4.0 | 0.00 | 0.73 | 0.00 | 94 | 1001.6 |
| 20260508054003 | 48 | 315 | 1.0 | 5.0 | 0.00 | 0.73 | 0.00 | 95 | 1001.6 |
| 20260508053509 | 48 | 10 | 2.0 | 5.0 | 0.00 | 0.73 | 0.00 | 95 | 1001.8 |
| 20260508053005 | 48 | 338 | 1.0 | 4.0 | 0.00 | 0.73 | 0.00 | 95 | 1001.7 |
| 20260508052508 | 48 | 328 | 1.0 | 5.0 | 0.00 | 0.73 | 0.00 | 95 | 1001.4 |
| 20260508052105 | 48 | 359 | 1.0 | 5.0 | 0.00 | 0.73 | 0.00 | 95 | 1001.4 |
| 20260508051507 | 48 | 42 | 1.0 | 3.0 | 0.00 | 0.73 | 0.00 | 95 | 1001.4 |
| 20260508051105 | 49 | 357 | 0.0 | 2.0 | 0.00 | 0.73 | 0.00 | 95 | 1001.3 |
| 20260508050508 | 49 | 8 | 0.0 | 1.0 | 0.00 | 0.73 | 0.00 | 95 | 1001.2 |
| 20260508050104 | 49 | 344 | 0.0 | 2.0 | 0.00 | 0.73 | 0.00 | 95 | 1001.4 |
| 20260508045507 | 49 | 314 | 0.0 | 2.0 | 0.00 | 0.73 | 0.00 | 96 | 1001.5 |
| 20260508045010 | 49 | 318 | 0.0 | 1.0 | 0.00 | 0.73 | 0.00 | 96 | 1001.6 |
| 20260508044507 | 49 | 196 | 0.0 | 1.0 | 0.00 | 0.73 | 0.00 | 95 | 1001.6 |
| 20260508044011 | 49 | 196 | 0.0 | 1.0 | 0.00 | 0.73 | 0.00 | 96 | 1001.6 |
| 20260508043507 | 49 | 196 | 0.0 | 1.0 | 0.00 | 0.73 | 0.00 | 96 | 1001.6 |
| 20260508043103 | 49 | 196 | 0.0 | 1.0 | 0.00 | 0.73 | 0.00 | 96 | 1001.6 |
| 20260508042513 | 49 | 185 | 0.0 | 0.0 | 0.00 | 0.73 | 0.00 | 96 | 1001.7 |
| 20260508042004 | 49 | 185 | 0.0 | 0.0 | 0.00 | 0.73 | 0.00 | 96 | 1001.8 |
| 20260508041514 | 49 | 185 | 0.0 | 0.0 | 0.00 | 0.73 | 0.00 | 96 | 1001.7 |
| 20260508041004 | 49 | 185 | 0.0 | 0.0 | 0.00 | 0.73 | 0.00 | 96 | 1001.7 |
| 20260508040510 | 49 | 185 | 0.0 | 0.0 | 0.00 | 0.73 | 0.00 | 96 | 1001.7 |
| 20260508040005 | 49 | 185 | 0.0 | 0.0 | 0.00 | 0.73 | 0.00 | 96 | 1001.9 |
| 20260508035509 | 49 | 185 | 0.0 | 0.0 | 0.00 | 0.73 | 0.00 | 96 | 1002.0 |
| 20260508034511 | 49 | 185 | 0.0 | 0.0 | 0.00 | 0.73 | 0.00 | 95 | 1002.1 |
| 20260508033507 | 49 | 185 | 0.0 | 1.0 | 0.00 | 0.73 | 0.00 | 95 | 1002.1 |
| 20260508033006 | 49 | 185 | 0.0 | 1.0 | 0.00 | 0.73 | 0.00 | 95 | 1002.1 |
| 20260508032508 | 49 | 197 | 0.0 | 1.0 | 0.00 | 0.73 | 0.00 | 95 | 1002.1 |
| 20260508032004 | 49 | 206 | 0.0 | 3.0 | 0.00 | 0.73 | 0.00 | 95 | 1002.1 |
| 20260508031512 | 49 | 170 | 1.0 | 3.0 | 0.00 | 0.73 | 0.00 | 95 | 1002.3 |
| 20260508031005 | 49 | 213 | 1.0 | 3.0 | 0.00 | 0.73 | 0.00 | 95 | 1002.2 |
| 20260508030511 | 49 | 209 | 0.0 | 2.0 | 0.00 | 0.73 | 0.00 | 95 | 1002.2 |
| 20260508030005 | 49 | 161 | 0.0 | 2.0 | 0.00 | 0.73 | 0.00 | 95 | 1002.3 |
| 20260508025511 | 48 | 171 | 0.0 | 2.0 | 0.00 | 0.73 | 0.73 | 95 | 1002.4 |
| 20260508025002 | 49 | 192 | 0.0 | 4.0 | 0.00 | 0.73 | 0.73 | 95 | 1002.0 |
| 20260508024508 | 49 | 175 | 2.0 | 6.0 | 0.00 | 0.73 | 0.73 | 95 | 1002.1 |
| 20260508024003 | 49 | 200 | 3.0 | 6.0 | 0.00 | 0.73 | 0.73 | 95 | 1001.8 |
| 20260508023510 | 49 | 211 | 2.0 | 5.0 | 0.00 | 0.73 | 0.73 | 95 | 1001.9 |
| 20260508023004 | 49 | 195 | 2.0 | 5.0 | 0.00 | 0.73 | 0.73 | 95 | 1001.8 |
| 20260508022509 | 49 | 211 | 3.0 | 5.0 | 0.00 | 0.73 | 0.73 | 95 | 1001.9 |
| 20260508022005 | 49 | 230 | 2.0 | 4.0 | 0.00 | 0.73 | 0.73 | 95 | 1002.0 |
| 20260508021509 | 49 | 207 | 2.0 | 4.0 | 0.00 | 0.73 | 0.73 | 95 | 1001.8 |
| 20260508021005 | 49 | 218 | 2.0 | 4.0 | 0.00 | 0.73 | 0.73 | 95 | 1001.7 |
| 20260508020510 | 49 | 211 | 1.0 | 6.0 | 0.00 | 0.73 | 0.73 | 95 | 1002.0 |
| 20260508020005 | 49 | 220 | 3.0 | 6.0 | 0.00 | 0.73 | 0.73 | 95 | 1002.0 |
| 20260508015604 | 49 | 217 | 3.0 | 6.0 | 0.00 | 0.73 | 0.73 | 95 | 1002.0 |
| 20260508015004 | 49 | 191 | 1.0 | 6.0 | 0.00 | 0.73 | 0.73 | 95 | 1002.0 |
| 20260508014511 | 49 | 226 | 3.0 | 6.0 | 0.00 | 0.73 | 0.73 | 95 | 1002.1 |
| 20260508014007 | 49 | 170 | 3.0 | 6.0 | 0.00 | 0.73 | 0.73 | 95 | 1002.1 |
| 20260508013606 | 49 | 250 | 1.0 | 4.0 | 0.00 | 0.73 | 0.73 | 95 | 1002.0 |
| 20260508013006 | 48 | 163 | 2.0 | 4.0 | 0.00 | 0.73 | 0.73 | 95 | 1001.9 |
| 20260508012503 | 48 | 143 | 1.0 | 4.0 | 0.00 | 0.73 | 0.73 | 95 | 1001.8 |
| 20260508012007 | 48 | 167 | 1.0 | 4.0 | 0.00 | 0.73 | 0.73 | 95 | 1001.7 |
| 20260508011504 | 48 | 217 | 2.0 | 6.0 | 0.00 | 0.73 | 0.73 | 95 | 1002.0 |
| 20260508011007 | 48 | 147 | 1.0 | 6.0 | 0.00 | 0.73 | 0.73 | 95 | 1001.9 |
| 20260508010503 | 48 | 144 | 3.0 | 8.0 | 0.00 | 0.73 | 0.73 | 95 | 1002.0 |
| 20260508010019 | 48 | 152 | 2.0 | 8.0 | 0.00 | 0.73 | 0.73 | 94 | 1002.2 |
| 20260508005504 | 48 | 142 | 3.0 | 8.0 | 0.00 | 0.73 | 0.73 | 95 | 1002.5 |
| 20260508005004 | 48 | 192 | 4.0 | 8.0 | 0.00 | 0.73 | 0.73 | 94 | 1002.4 |
| 20260508004518 | 49 | 149 | 2.0 | 6.0 | 0.00 | 0.73 | 0.73 | 94 | 1002.3 |
| 20260508004005 | 49 | 165 | 2.0 | 6.0 | 0.00 | 0.73 | 0.73 | 94 | 1002.4 |
| 20260508003509 | 48 | 152 | 3.0 | 6.0 | 0.00 | 0.73 | 0.73 | 94 | 1002.3 |
| 20260508003007 | 48 | 206 | 2.0 | 4.0 | 0.00 | 0.73 | 0.73 | 94 | 1002.1 |
| 20260508002604 | 49 | 172 | 2.0 | 4.0 | 0.00 | 0.73 | 0.73 | 94 | 1002.1 |
| 20260508002007 | 49 | 187 | 0.0 | 5.0 | 0.00 | 0.73 | 0.73 | 94 | 1002.2 |
| 20260508001505 | 49 | 174 | 2.0 | 6.0 | 0.00 | 0.73 | 0.73 | 94 | 1002.3 |
| 20260508001008 | 49 | 201 | 2.0 | 6.0 | 0.00 | 0.73 | 0.73 | 94 | 1002.2 |
| 20260508000503 | 49 | 215 | 3.0 | 6.0 | 0.00 | 0.73 | 0.73 | 94 | 1002.5 |
| 20260508000008 | 49 | 163 | 3.0 | 6.0 | 0.00 | 0.73 | 0.73 | 94 | 1002.8 |
| 20260507235504 | 49 | 169 | 3.0 | 6.0 | 0.00 | 0.73 | 0.73 | 94 | 1002.7 |
| 20260507235113 | 49 | 149 | 2.0 | 6.0 | 0.00 | 0.73 | 0.73 | 94 | 1002.6 |
| 20260507234613 | 49 | 199 | 3.0 | 8.0 | 0.01 | 0.73 | 0.73 | 94 | 1002.3 |
| 20260507234006 | 49 | 175 | 3.0 | 8.0 | 0.01 | 0.73 | 0.73 | 94 | 1002.5 |
| 20260507233603 | 49 | 170 | 2.0 | 9.0 | 0.01 | 0.73 | 0.73 | 94 | 1002.6 |
| 20260507233007 | 49 | 153 | 5.0 | 9.0 | 0.01 | 0.73 | 0.73 | 94 | 1002.7 |
| 20260507232502 | 49 | 161 | 4.0 | 9.0 | 0.01 | 0.73 | 0.73 | 94 | 1002.6 |
| 20260507232008 | 49 | 144 | 4.0 | 9.0 | 0.01 | 0.73 | 0.73 | 94 | 1002.8 |
| 20260507231504 | 49 | 213 | 3.0 | 8.0 | 0.01 | 0.73 | 0.73 | 94 | 1002.8 |
| 20260507231008 | 49 | 168 | 4.0 | 10.0 | 0.01 | 0.73 | 0.73 | 94 | 1003.0 |
| 20260507230504 | 49 | 151 | 6.0 | 10.0 | 0.01 | 0.73 | 0.73 | 94 | 1003.0 |
| 20260507230008 | 49 | 192 | 4.0 | 6.0 | 0.01 | 0.73 | 0.73 | 94 | 1002.9 |
| 20260507225505 | 49 | 180 | 2.0 | 6.0 | 0.01 | 0.73 | 0.73 | 94 | 1002.6 |
| 20260507225013 | 49 | 157 | 2.0 | 8.0 | 0.01 | 0.73 | 0.73 | 94 | 1002.6 |
| 20260507224514 | 49 | 157 | 3.0 | 7.0 | 0.00 | 0.72 | 0.72 | 93 | 1003.0 |
| 20260507224005 | 49 | 165 | 3.0 | 7.0 | 0.00 | 0.72 | 0.72 | 93 | 1003.0 |
| 20260507223513 | 49 | 148 | 3.0 | 7.0 | 0.00 | 0.72 | 0.72 | 93 | 1003.0 |
| 20260507223007 | 49 | 173 | 3.0 | 9.0 | 0.00 | 0.72 | 0.72 | 93 | 1003.0 |
| 20260507222604 | 49 | 174 | 4.0 | 11.0 | 0.00 | 0.72 | 0.72 | 93 | 1002.7 |
| 20260507222009 | 49 | 154 | 5.0 | 14.0 | 0.00 | 0.72 | 0.72 | 93 | 1002.9 |
| 20260507221505 | 49 | 167 | 7.0 | 14.0 | 0.00 | 0.72 | 0.72 | 93 | 1003.0 |
| 20260507221009 | 50 | 189 | 7.0 | 12.0 | 0.00 | 0.72 | 0.72 | 92 | 1002.9 |
| 20260507220505 | 50 | 164 | 6.0 | 16.0 | 0.00 | 0.72 | 0.72 | 92 | 1003.1 |
| 20260507220010 | 50 | 155 | 11.0 | 16.0 | 0.00 | 0.72 | 0.72 | 92 | 1002.9 |
| 20260507215505 | 50 | 204 | 8.0 | 16.0 | 0.01 | 0.72 | 0.72 | 93 | 1002.8 |
| 20260507215010 | 50 | 146 | 8.0 | 16.0 | 0.01 | 0.72 | 0.72 | 93 | 1002.9 |
| 20260507214006 | 49 | 139 | 10.0 | 17.0 | 0.05 | 0.72 | 0.72 | 92 | 1002.7 |
| 20260507213504 | 49 | 118 | 8.0 | 23.0 | 0.07 | 0.72 | 0.72 | 92 | 1002.5 |
| 20260507213008 | 49 | 115 | 12.0 | 23.0 | 0.09 | 0.72 | 0.72 | 92 | 1002.4 |
| 20260507212503 | 49 | 126 | 11.0 | 27.0 | 0.12 | 0.72 | 0.72 | 92 | 1001.9 |
| 20260507212008 | 49 | 114 | 15.0 | 27.0 | 0.15 | 0.72 | 0.72 | 92 | 1001.6 |
| 20260507211503 | 49 | 183 | 11.0 | 21.0 | 0.17 | 0.72 | 0.72 | 92 | 1002.1 |
| 20260507211007 | 49 | 156 | 7.0 | 15.0 | 0.20 | 0.72 | 0.72 | 92 | 1002.4 |
| 20260507210005 | 49 | 119 | 9.0 | 18.0 | 0.26 | 0.72 | 0.72 | 92 | 1003.1 |
| 20260507205511 | 50 | 141 | 8.0 | 18.0 | 0.28 | 0.72 | 0.72 | 92 | 1003.2 |
| 20260507205106 | 50 | 138 | 10.0 | 19.0 | 0.31 | 0.72 | 0.72 | 92 | 1003.4 |
| 20260507204503 | 50 | 168 | 11.0 | 19.0 | 0.34 | 0.69 | 0.69 | 91 | 1003.5 |
| 20260507204007 | 50 | 133 | 8.0 | 18.0 | 0.34 | 0.67 | 0.67 | 92 | 1003.9 |
| 20260507203604 | 50 | 139 | 10.0 | 18.0 | 0.35 | 0.65 | 0.65 | 92 | 1003.7 |
| 20260507203007 | 50 | 145 | 8.0 | 16.0 | 0.38 | 0.63 | 0.63 | 92 | 1003.9 |
| 20260507202502 | 51 | 194 | 9.0 | 17.0 | 0.37 | 0.60 | 0.60 | 92 | 1004.3 |
| 20260507202007 | 51 | 175 | 7.0 | 17.0 | 0.35 | 0.56 | 0.56 | 92 | 1004.6 |
| 20260507201603 | 51 | 199 | 8.0 | 17.0 | 0.35 | 0.55 | 0.55 | 92 | 1004.6 |
| 20260507201007 | 51 | 206 | 5.0 | 14.0 | 0.32 | 0.52 | 0.52 | 92 | 1004.9 |
| 20260507200603 | 51 | 239 | 8.0 | 15.0 | 0.32 | 0.50 | 0.50 | 92 | 1005.0 |
| 20260507200007 | 51 | 159 | 9.0 | 15.0 | 0.28 | 0.46 | 0.46 | 92 | 1005.0 |
| 20260507195505 | 52 | 166 | 6.0 | 17.0 | 0.27 | 0.42 | 0.42 | 92 | 1004.5 |
| 20260507195111 | 51 | 143 | 7.0 | 19.0 | 0.26 | 0.39 | 0.39 | 92 | 1004.6 |
| 20260507194503 | 52 | 138 | 11.0 | 19.0 | 0.24 | 0.35 | 0.35 | 92 | 1004.7 |
| 20260507194008 | 52 | 150 | 8.0 | 20.0 | 0.22 | 0.32 | 0.32 | 92 | 1004.6 |
| 20260507193504 | 52 | 171 | 8.0 | 22.0 | 0.20 | 0.28 | 0.28 | 92 | 1004.6 |
| 20260507193009 | 52 | 126 | 12.0 | 22.0 | 0.17 | 0.25 | 0.25 | 92 | 1004.7 |